[[{"header":{"parameterUnit":"m.s-1","parameterCategory":1,"la1":30.2991,"la2":30.254,"lo1":-89.0895,"lo2":-89.0444,"dy":0.0017,"dx":0.0017,"nx":28,"ny":28,"refTime":"2025-06-13T21:00:00:Z","depth":0,"parameterNumber":2,"parameterNumberName":"U-component_of_WINDS"},"data":[0,0,0,0,0,0,0,0,0,0,0,0,0,0,0,0,0,0,0,0,0,0,0,0,0,0,0,0,0,0,0,0,0,0,0,0,0,0,0,0,0,0,0,0,0,0,0,0,0,0,0,0,0,0,0,0,0,0,1.9927,1.9928,0,1.997,1.9971,1.9971,1.991,1.9907,1.9905,1.9903,1.9945,1.9948,1.9951,0,0,0,0,0,0,0,0,0,0,0,0,0,1.9788,1.9791,1.9927,1.9928,1.9928,1.997,1.9971,1.9972,1.991,1.9907,1.9905,1.9902,1.9944,1.9948,1.9951,0,0,0,0,0,0,0,0,0,0,0,0,0,1.9842,1.9792,1.9927,1.9903,1.9901,1.997,1.9971,1.9972,1.991,1.9907,1.9904,1.9901,1.9943,1.9947,1.9952,2.0046,0,0,1.9966,1.9968,0,0,0,0,0,0,0,0,1.9839,1.9847,1.9906,1.9905,1.9903,1.9931,1.9937,1.9997,1.9911,1.9907,1.9903,1.9899,1.9943,1.9947,1.9963,2.0048,2.005,1.9967,1.997,1.9972,1.9973,0,0,0,0,0,0,0,1.9835,1.9845,1.9944,1.9907,1.9905,1.9888,1.9892,1.9948,1.9943,1.9907,1.9903,1.9909,1.9941,1.9958,1.9963,2.0051,1.9967,1.9971,1.9974,1.9976,2.0214,2.0218,0,0,0,0,0,0,1.9835,1.9842,1.9943,1.9945,1.9862,1.9894,1.9898,1.9925,1.9942,1.9941,1.9911,1.9906,1.9952,1.9958,1.9964,2.0075,1.9972,1.9976,1.9979,2.0211,2.0215,2.0219,0,0,0,0,0,0,1.9832,1.9844,1.9941,1.9893,1.9904,1.99,1.9931,1.9928,1.9945,1.9945,1.9944,1.993,1.9949,1.9958,2.0026,2.0075,1.9978,1.9982,2.0207,2.0212,2.0217,2.0297,0,0,0,0,0,0,1.9828,1.9844,1.988,1.9894,1.9907,2.0004,1.9934,1.9931,1.9953,1.9946,1.9962,1.9962,1.9947,2.002,2.0031,2.008,1.9986,2.0202,2.0209,2.0215,2.029,2.0305,2.0317,0,0,0,0,0,1.9824,1.9901,1.9883,1.9895,1.9953,2.0007,2.0014,1.9997,1.9958,1.9994,1.9994,1.9961,2.0068,2.0027,2.0039,2.0091,2.0199,2.0207,2.0215,2.0284,2.0302,2.0317,0,0,0,0,0,0,1.9893,1.9903,1.9882,1.9967,1.9986,1.9996,2.0041,2.0016,2.0047,2.0038,2.0015,2.0019,2.0093,2.0098,2.0052,2.0182,2.0127,2.0138,2.0176,2.0192,2.0205,2.0202,1.999,0,0,0,0,0,1.9918,1.9963,1.9968,2.0042,2.0053,2.0046,2.0069,2.0054,2.0073,2.0081,2.0086,2.0105,2.0142,2.0168,2.0203,2.0291,2.0293,2.0332,2.0346,2.0357,2.0366,2.0411,2.0428,2.0245,2.0245,2.0245,0,0,1.9971,1.9982,2.0011,2.0056,2.007,2.0115,2.0053,2.0103,2.0136,2.0088,2.0153,2.0157,2.0177,2.0255,2.029,2.0262,2.0417,2.0367,2.0375,2.0379,2.0421,2.0439,2.0454,2.025,2.0249,2.0248,0,0,2.0089,2.0103,2.0165,2.018,2.0201,2.0195,2.021,2.0224,2.0225,2.029,2.0254,2.0292,2.0358,2.0373,2.039,2.0513,2.0483,2.0525,2.0594,2.0639,2.0653,2.0666,2.0709,2.0724,2.0534,2.0534,2.0534,0,2.0152,2.0219,2.02,2.0253,2.0273,2.0232,2.0294,2.0309,2.0341,2.0355,2.0324,2.0405,2.0415,2.0496,2.0526,2.0541,2.0556,2.0522,2.0653,2.0666,2.0677,2.0717,2.0733,2.0539,2.0539,2.0538,2.0538,0,2.0294,2.0341,2.0388,2.042,2.0446,2.0503,2.0492,2.052,2.0503,2.05,2.0566,2.0577,2.0612,2.0631,2.0614,2.0709,2.0691,2.0657,2.0601,2.07,2.0737,2.0752,2.0546,2.0544,2.0543,2.0542,0,0,2.0457,2.0477,2.0495,2.0508,2.0528,2.0564,2.0618,2.0654,2.0678,2.0701,2.0745,2.0801,2.077,2.0788,2.0773,2.0813,2.0907,2.0773,2.0774,2.0797,2.101,2.1035,2.1053,2.0888,2.0891,2.0894,2.1008,0,2.0574,2.0669,2.0654,2.0746,2.0788,2.0749,2.0796,2.0813,2.0812,2.0847,2.0845,2.0885,2.0841,2.0852,2.0889,2.0888,2.095,2.088,2.0928,2.093,2.0923,2.1073,2.1099,2.1207,2.1023,2.1025,2.1027,0,2.0723,2.0752,2.0848,2.0861,2.0878,2.0921,2.0951,2.0986,2.1003,2.0999,2.102,2.0997,2.105,2.0994,2.1066,2.1019,2.1037,2.104,2.1043,2.1046,2.0984,2.1078,2.1241,2.1256,2.105,2.1048,2.1047,0,2.0831,2.0894,2.0959,2.0972,2.0988,2.1019,2.1027,2.1042,2.1064,2.109,2.1104,2.1136,2.1153,2.1178,2.1164,2.1125,2.1238,2.1181,2.1235,2.1235,2.1259,2.1258,2.1426,2.1274,2.1274,2.1273,2.1273,0,2.0963,2.1023,2.1008,2.1048,2.1113,2.1094,2.1159,2.1162,2.1175,2.1214,2.1183,2.122,2.12,2.1235,2.1224,2.1284,2.1293,2.129,2.1286,2.1292,2.1292,2.1303,2.1295,2.1278,2.1277,2.1276,2.1275,0,2.1094,2.1086,2.1155,2.1165,2.1168,2.1216,2.1224,2.126,2.1257,2.1306,2.1317,2.1311,2.135,2.1339,2.1382,2.1375,2.145,2.1438,2.1445,2.1441,2.1495,2.1489,2.1675,2.1697,2.1532,2.1534,2.1535,0,2.1178,2.1223,2.1238,2.1262,2.1273,2.1312,2.1334,2.1317,2.1341,2.1364,2.1397,2.1434,2.1463,2.1528,2.1526,2.1558,2.1545,2.1608,2.155,2.1554,2.1544,2.1541,2.1545,2.1619,2.1621,2.1623,2.1624,0,2.1327,2.1321,2.1355,2.1387,2.1414,2.1439,2.146,2.1481,2.1465,2.1494,2.1534,2.1556,2.16,2.1636,2.1665,2.1672,2.1645,2.1643,2.1656,2.1662,2.1664,2.1662,2.1475,2.1638,2.1637,2.1636,2.1635,2.1634,2.1436,2.1474,2.149,2.1528,2.1542,2.1563,2.1597,2.1598,2.1631,2.1666,2.1653,2.1699,2.1714,2.1751,2.1761,2.1796,2.1772,2.1793,2.1797,2.1802,2.1808,2.1659,2.1802,2.1801,2.1801,2.18,2.18,0,2.1582,2.159,2.1626,2.1657,2.1686,2.1659,2.1681,2.1707,2.1748,2.1765,2.1794,2.1839,2.1874,2.1876,2.1908,2.1935,2.1924,2.1944,2.1941,2.1943,2.1829,2.1813,2.1953,2.1953,2.1953,2.1953,2.1953,2.1953,2.1661,2.1724,2.1719,2.1787,2.1795,2.184,2.1855,2.1873,2.1886,2.1938,2.1967,2.1968,2.1979,2.2011,2.2042,2.2041,2.2054,2.2079,2.2073,2.1967,2.1951,2.1937,2.1921,2.2082,2.2082,2.2184,2.2185,2.2186]},{"header":{"parameterUnit":"m.s-1","parameterCategory":1,"la1":30.2991,"la2":30.254,"lo1":-89.0895,"lo2":-89.0444,"dy":0.0017,"dx":0.0017,"nx":28,"ny":28,"refTime":"2025-06-13T21:00:00:Z","depth":0,"parameterNumber":3,"parameterNumberName":"V-component_of_WINDS"},"data":[0,0,0,0,0,0,0,0,0,0,0,0,0,0,0,0,0,0,0,0,0,0,0,0,0,0,0,0,0,0,0,0,0,0,0,0,0,0,0,0,0,0,0,0,0,0,0,0,0,0,0,0,0,0,0,0,0,0,3.358,3.3582,0,3.3756,3.3758,3.376,3.374,3.3737,3.3734,3.3731,3.3915,3.3923,3.393,0,0,0,0,0,0,0,0,0,0,0,0,0,3.3226,3.3233,3.358,3.3582,3.3584,3.3756,3.3758,3.3761,3.374,3.3737,3.3733,3.373,3.3913,3.3922,3.3931,0,0,0,0,0,0,0,0,0,0,0,0,0,3.3389,3.3235,3.358,3.3595,3.3598,3.3756,3.3759,3.3762,3.3741,3.3737,3.3732,3.3728,3.391,3.3921,3.3932,3.4087,0,0,3.3967,3.3972,0,0,0,0,0,0,0,0,3.338,3.3402,3.359,3.3594,3.3598,3.3722,3.3701,3.3871,3.3742,3.3687,3.3731,3.3726,3.3855,3.387,3.3913,3.4096,3.4104,3.3968,3.3974,3.3979,3.3983,0,0,0,0,0,0,0,3.3369,3.3394,3.365,3.3593,3.3598,3.3593,3.3611,3.3733,3.3793,3.3691,3.369,3.3711,3.3856,3.3902,3.3917,3.4106,3.3967,3.3977,3.3984,3.3989,3.4423,3.4428,0,0,0,0,0,0,3.3353,3.3385,3.3644,3.3655,3.3476,3.3603,3.3623,3.3686,3.3791,3.3803,3.3714,3.3709,3.3885,3.3904,3.3923,3.411,3.3979,3.399,3.3996,3.4418,3.4424,3.4429,0,0,0,0,0,0,3.3346,3.3377,3.3637,3.352,3.3553,3.3613,3.3684,3.3692,3.3738,3.3809,3.3819,3.3751,3.3882,3.3907,3.4046,3.4117,3.3995,3.4005,3.4413,3.442,3.4427,3.4487,0,0,0,0,0,0,3.3336,3.3374,3.3434,3.3521,3.3559,3.3757,3.3688,3.3698,3.3757,3.3752,3.3845,3.3857,3.3881,3.4029,3.4057,3.413,3.4014,3.4407,3.4416,3.4424,3.4479,3.4495,3.4509,0,0,0,0,0,3.3323,3.3445,3.3437,3.3468,3.3635,3.3761,3.3782,3.3806,3.3763,3.3823,3.3868,3.3854,3.4104,3.4043,3.4075,3.4152,3.4402,3.4413,3.4424,3.4472,3.4492,3.4509,0,0,0,0,0,0,3.3366,3.3457,3.3449,3.3602,3.3674,3.3757,3.3834,3.3827,3.3913,3.3905,3.3932,3.3953,3.4093,3.4136,3.4067,3.4306,3.4247,3.4265,3.4273,3.4293,3.4308,3.4294,3.4024,0,0,0,0,0,3.3393,3.3487,3.3562,3.369,3.3726,3.3774,3.383,3.3841,3.3917,3.3948,3.4003,3.4077,3.4172,3.4235,3.4327,3.4484,3.4504,3.4553,3.4568,3.458,3.4595,3.468,3.4702,3.4464,3.4464,3.4464,0,0,3.345,3.3511,3.357,3.37,3.3757,3.3854,3.38,3.3905,3.3977,3.3964,3.4098,3.414,3.4225,3.4373,3.4442,3.4414,3.4665,3.4594,3.4603,3.4611,3.4693,3.4716,3.4736,3.4472,3.447,3.4469,0,0,3.3604,3.366,3.3772,3.383,3.3915,3.3946,3.3972,3.4056,3.4084,3.4218,3.4209,3.4295,3.4459,3.4519,3.4571,3.4744,3.4734,3.4773,3.4853,3.4935,3.4954,3.4971,3.5032,3.5053,3.4788,3.4788,3.4788,0,3.3665,3.3811,3.3831,3.3937,3.3994,3.3984,3.4098,3.4152,3.4264,3.4304,3.4271,3.4474,3.4531,3.4692,3.4734,3.4777,3.4807,3.4764,3.4949,3.4967,3.4982,3.5041,3.5064,3.4792,3.4792,3.4792,3.4791,0,3.3881,3.3981,3.4062,3.4168,3.4233,3.4343,3.438,3.4444,3.4449,3.4483,3.4619,3.4685,3.4789,3.4828,3.4836,3.499,3.497,3.4943,3.4884,3.5009,3.5064,3.5087,3.4798,3.4797,3.4796,3.4795,0,0,3.4069,3.4183,3.4212,3.4259,3.4351,3.443,3.4537,3.4637,3.4691,3.4768,3.4859,3.4996,3.4971,3.503,3.5043,3.5115,3.5246,3.5079,3.5082,3.5107,3.5419,3.5439,3.5465,3.5239,3.5244,3.5247,3.5412,0,3.4232,3.4422,3.4442,3.4612,3.4705,3.4695,3.4789,3.4856,3.4889,3.4973,3.501,3.5107,3.5066,3.5101,3.5172,3.5215,3.5309,3.5204,3.5324,3.5329,3.5304,3.5494,3.5516,3.5669,3.5434,3.5438,3.544,0,3.4448,3.4529,3.4707,3.4784,3.4824,3.4908,3.4999,3.5079,3.5154,3.5173,3.5237,3.5241,3.5352,3.5287,3.544,3.5367,3.5418,3.5446,3.5452,3.5465,3.5392,3.5512,3.5718,3.5741,3.5475,3.5472,3.5469,0,3.4567,3.472,3.4846,3.4887,3.498,3.5039,3.508,3.5151,3.5208,3.5289,3.5326,3.5419,3.547,3.5542,3.5569,3.552,3.572,3.5659,3.5739,3.5739,3.5783,3.578,3.6,3.5815,3.5815,3.5814,3.5814,0,3.4747,3.4857,3.49,3.4978,3.51,3.5121,3.5241,3.528,3.5342,3.5427,3.5425,3.5504,3.5536,3.5621,3.5643,3.5765,3.5789,3.5807,3.5812,3.5808,3.5805,3.5842,3.5832,3.582,3.5819,3.5818,3.5817,0,3.4901,3.4935,3.5071,3.5147,3.5168,3.5255,3.532,3.5394,3.5425,3.5533,3.5559,3.5609,3.5708,3.5742,3.5863,3.5878,3.602,3.6016,3.5994,3.5995,3.6074,3.6066,3.6326,3.636,3.6152,3.6154,3.6156,0,3.5014,3.5097,3.5181,3.5237,3.528,3.5371,3.5429,3.5452,3.5513,3.5602,3.5666,3.5764,3.5844,3.6003,3.605,3.6142,3.614,3.6224,3.6154,3.6146,3.614,3.6135,3.6143,3.6238,3.624,3.6242,3.6243,0,3.521,3.5222,3.5305,3.5394,3.5463,3.5535,3.5604,3.565,3.5684,3.5752,3.5852,3.5914,3.6035,3.6133,3.6226,3.6269,3.6262,3.6264,3.6288,3.6285,3.6268,3.6277,3.603,3.6259,3.6257,3.6256,3.6255,3.6255,3.5347,3.542,3.5489,3.5582,3.5636,3.57,3.5773,3.5812,3.5896,3.5996,3.6004,3.6112,3.6182,3.6307,3.6354,3.6438,3.6415,3.6449,3.6458,3.6466,3.6471,3.6254,3.6455,3.6455,3.6455,3.6454,3.6454,0,3.5543,3.5586,3.5671,3.5766,3.5839,3.5823,3.5898,3.596,3.6054,3.612,3.6197,3.6312,3.6405,3.6458,3.6551,3.6608,3.6607,3.6632,3.6628,3.6638,3.6488,3.6458,3.6631,3.6631,3.6631,3.6631,3.6631,3.6631,3.5653,3.5775,3.5795,3.5943,3.5985,3.609,3.6134,3.6192,3.6244,3.6371,3.6448,3.6481,3.6542,3.6638,3.6723,3.6736,3.677,3.6798,3.6808,3.6667,3.6649,3.6632,3.6603,3.6805,3.6805,3.6952,3.6953,3.6954]}]]